Location: Aulus
(42.7909°N, 1.3399°E)
Time: 17:46:20
(UTC+00:00)

Cosmos 864 Rocket - Visible Passes

Search period start: 18 January 2026 00:00
Search period end: 28 January 2026 00:00
Orbit: 952 x 991 km, 82.9° (Epoch: 17 January)

Date Brightness Start Highest point End Pass type
(mag) Time Alt. Az. Time Alt. Az. Time Alt. Az.
18 Jan 6.7 05:09:53 10° SE 05:14:39 25° E 05:19:27 10° NNE visible
18 Jan 5.1 17:47:48 10° NNW 17:53:55 60° W 18:00:04 10° S visible
19 Jan 5.7 05:32:49 10° SSE 05:38:31 43° E 05:44:16 10° NNE visible
19 Jan 6.2 18:12:21 10° NNW 18:17:53 34° W 18:23:26 10° SSW visible
20 Jan 7.6 04:17:42 10° E 04:18:23 10° ENE 04:19:04 10° ENE visible
20 Jan 4.7 05:56:26 10° S 06:02:32 76° E 06:08:40 10° N visible
20 Jan 7.1 18:37:23 10° NW 18:41:40 20° W 18:45:59 10° SW visible
21 Jan 6.9 04:37:50 10° SE 04:42:01 20° E 04:46:14 10° NE visible
21 Jan 4.5 06:20:39 10° SSW 06:26:42 63° W 06:32:48 10° N visible
21 Jan 4.8 17:14:56 10° N 17:21:10 75° W 17:27:26 10° S visible
21 Jan 7.7 19:04:22 10° WNW 19:05:19 10° WNW 19:06:16 10° W visible
22 Jan 6.0 05:00:23 10° SSE 05:05:49 35° E 05:11:17 10° NNE visible
22 Jan 5.0 06:45:28 10° SW 06:51:02 36° WNW 06:56:39 10° N visible
22 Jan 5.9 17:39:21 10° NNW 17:45:11 43° W 17:51:03 10° SSW visible
23 Jan 5.0 05:23:46 10° S 05:29:45 61° E 05:35:49 10° NNE visible
23 Jan 6.9 18:04:09 10° NNW 18:09:02 25° W 18:13:58 10° SW visible
24 Jan 7.1 04:06:00 10° ESE 04:09:24 16° E 04:12:49 10° NE visible
24 Jan 4.4 05:47:44 10° SSW 05:53:52 78° W 06:00:03 10° N visible
24 Jan 7.4 18:29:49 10° NW 18:32:45 14° WNW 18:35:40 10° WSW visible
25 Jan 6.4 04:28:05 10° SE 04:33:08 28° E 04:38:13 10° NNE visible
25 Jan 4.7 06:12:19 10° SSW 06:18:08 44° WNW 06:24:01 10° N visible
26 Jan 5.3 04:51:10 10° SSE 04:57:01 49° E 05:02:54 10° NNE visible
26 Jan 5.3 06:37:34 10° SW 06:42:34 26° WNW 06:47:38 10° NNW visible
26 Jan 6.6 17:31:02 10° NNW 17:36:23 31° W 17:41:46 10° SW visible
27 Jan 7.3 03:34:37 10° E 03:36:48 12° ENE 03:39:00 10° ENE visible
27 Jan 4.4 05:14:56 10° S 05:21:03 85° E 05:27:15 10° N visible
27 Jan 7.2 17:56:14 10° NW 18:00:09 18° W 18:04:05 10° WSW visible
